Theta_e
276 276 276 276 276 276 276 276 278 278 278 278 280 281 283 284 284 285 285 285 287 288
275 276 275 275 276 276 276 277 277 277 277 277 278 278 279 283 283 285 284 284 286 286
275 276 275 275 275 276 276 277 276 276 276 276 276 277 277 279 283 283 283 284 284 285
276 276 276 276 275 275 276 276 276 276 276 275 275 275 275 276 280 280 282 282 282 283
276 276 275 275 275 275 274 275 275 275 275 274 274 274 274 275 277 278 279 280 281 281
275 275 274 274 274 275 273 272 273 273 273 272 272 272 273 275 277 278 278 278 279 280
274 274 273 274 274 274 273 272 271 270 271 271 271 271 273 275 276 277 278 278 279 279
275 274 273 273 273 273 273 273 271 271 269 269 269 272 272 275 276 276 276 276 277 278
274 274 273 273 272 272 272 271 271 271 269 267 269 273 276 277 275 275 274 273 274 276
274 273 272 272 271 271 270 270 270 268 267 265 266 272 275 277 274 272 272 272 272 274
273 272 271 270 270 269 269 268 266 264 263 262 265 272 274 275 272 271 270 270 271 272
272 270 269 268 266 265 266 262 261 264 263 262 263 270 273 274 270 271 269 270 271 271
269 269 267 266 266 267 263 264 264 263 263 263 261 268 272 273 271 268 268 271 270 274
267 267 266 266 266 264 261 261 258 260 260 261 261 262 271 274 271 269 271 269 270 270
Wind_Speed
4 3 3 4 5 5 5 7 10 11 11 12 13 12 13 10 12 14 14 19 14 13
3 4 4 5 4 4 5 8 10 10 11 12 12 12 13 10 12 13 15 16 16 13
4 4 4 4 5 6 6 8 9 11 11 12 12 12 13 11 12 14 12 13 18 17
4 4 4 4 4 5 7 8 9 10 11 12 13 13 12 13 14 15 16 16 18 20
4 4 4 4 5 4 6 7 8 10 11 12 12 13 13 14 14 15 17 17 18 20
5 4 5 4 4 4 5 6 7 8 10 12 12 13 13 13 15 14 15 16 18 18
6 5 5 4 4 4 4 5 5 6 8 10 12 12 12 15 15 14 14 16 15 17
6 5 4 4 4 4 5 6 5 6 7 9 10 9 14 14 14 14 15 15 15 14
6 5 5 4 3 4 5 6 7 8 9 11 8 22 23 20 13 13 14 15 16 15
6 6 5 3 3 4 5 7 7 9 9 10 11 22 24 24 12 12 11 13 15 15
6 6 4 3 3 3 5 5 6 7 7 7 9 22 23 25 12 11 9 12 13 14
7 5 4 4 2 3 4 3 3 6 7 8 10 21 23 21 11 11 13 12 9 13
6 5 4 3 3 2 2 5 4 7 6 9 9 18 22 19 9 11 11 10 11 19
4 4 4 3 3 2 3 4 5 6 6 7 7 11 21 22 9 9 10 10 11 11
Wind_Direction
337 332 326 327 327 325 323 323 328 334 335 334 332 335 336 332 335 332 330 326 320 313
315 324 318 319 305 301 308 324 331 328 329 333 332 334 333 327 329 328 331 327 326 317
285 297 301 314 320 321 316 321 325 330 331 331 331 331 332 325 323 331 331 329 328 325
271 286 294 302 306 308 317 323 326 330 328 330 329 331 327 323 321 328 327 331 329 325
250 268 280 287 296 292 303 319 320 325 326 327 327 326 324 320 319 325 326 327 326 328
248 257 266 279 285 295 298 306 312 323 324 323 324 321 317 312 315 320 320 324 323 323
239 243 252 272 283 294 291 293 302 303 311 316 317 317 316 312 314 319 319 320 319 320
234 234 240 259 268 289 299 310 301 303 315 315 317 318 320 317 314 321 321 320 320 316
228 226 226 243 266 291 303 313 313 320 318 320 317 319 321 323 320 320 319 318 319 318
225 225 224 238 263 289 307 311 316 317 315 305 311 318 323 323 321 316 311 314 315 319
216 215 218 226 250 285 302 305 307 304 289 290 302 322 322 324 318 308 309 305 305 313
196 197 206 235 246 259 276 272 266 296 306 302 302 318 325 324 317 315 310 304 306 311
175 187 196 218 246 243 247 286 292 301 292 291 294 312 323 325 315 316 307 307 314 318
160 176 191 217 205 240 259 280 281 280 280 281 277 297 317 323 325 306 309 319 321 315